User: anonymous   Login
Location: Austin
(30.3000°N, 97.7500°W)
Time: 11:39:09
(UTC-05:00)
Language:

Cosmos 1437 Rocket - Orbit

View from above orbital plane
View from above orbital plane
View from above satellite
View from above satellite

Ground track
Ground track

The orbit data is extracted from the following two-line orbital elements,

1 13771U 83003B   24173.06185183  .00007402  00000-0  33328-3 0  9997
2 13771  81.1648 284.2315 0039214 130.2383 230.2289 15.20224807260727
Epoch (UTC): 21 June 2024 01:29:03
Eccentricity: 0.0039214
inclination: 81.1648°
perigee height: 478 km
apogee height: 532 km
right ascension of ascending node: 284.2315°
argument of perigee: 130.2383°
revolutions per day: 15.20224807
mean anomaly at epoch: 230.2289°
orbit number at epoch: 26072

The dashed part of the orbit path shows where the satellite is in the earth's shadow,  

DLR